Valladolid Airport, Spain

2:48 AM CEST on May 23, 2017 (GMT +0200)
Villanubla

Weather History for LEVD - May, 2013

Change the Weather History Date:

Saturday, May 4, 2013

  Actual Average Record
Temperature  
Mean Temperature 50 °F -  
Max Temperature 64 °F - - ()
Min Temperature 35 °F - - ()
Degree Days  
Heating Degree Days 16    
Moisture  
Dew Point 40 °F    
Average Humidity 61    
Maximum Humidity 93    
Minimum Humidity 37    
Precipitation  
Precipitation 0.00 in - - ()
Sea Level Pressure  
Sea Level Pressure 30.14 in    
Wind  
Wind Speed 3 mph ()    
Max Wind Speed 8 mph    
Max Gust Speed -    
Visibility 6.2 miles    
Events      
T = Trace of Precipitation, MM = Missing Value Source: Averaged Metar Reports

Daily Weather History Graph

Daily Weather History Graph

Search for Another Location

Airport or City:

Trip Planner

Search our weather history database for the weather conditions in past years. The results will help you decide how hot, cold, wet, or windy it might be!

Date:

Astronomy

May. 04, 2013 Rise Set
Actual Time 7:12 AM CEST 9:20 PM CEST
Civil Twilight 6:41 AM CEST 9:51 PM CEST
Nautical Twilight 6:03 AM CEST 10:29 PM CEST
Astronomical Twilight 5:22 AM CEST 11:10 PM CEST
Moon 4:07 AM CEST (5/4) 3:59 PM CEST (5/4)
Length of Visible Light 15h 10m
Length of Day
14h 08m
Waning Crescent, 29% of the Moon is Illuminated
May 4
Waning Crescent
May 10
New
May 18
First Quarter
May 25
Full
May 31
Last Quarter

Hourly Weather History & Observations

Time (CEST) Temp. Windchill Dew Point Humidity Pressure Visibility Wind Dir Wind Speed Gust Speed Precip Events Conditions
7:00 AM 37.4 °F 31.4 °F 35.6 °F 93% 30.12 in - NE 8.1 mph - N/A   Clear
7:30 AM 35.6 °F - 33.8 °F 93% 30.12 in - Variable 2.3 mph - N/A   Clear
8:00 AM 37.4 °F 34.9 °F 35.6 °F 93% 30.12 in - ENE 3.5 mph - N/A   Clear
8:30 AM 41.0 °F - 37.4 °F 87% 30.15 in - Variable 1.2 mph - N/A   Clear
9:00 AM 42.8 °F - 39.2 °F 87% 30.15 in - ENE 2.3 mph - N/A   Clear
9:30 AM 44.6 °F 42.2 °F 39.2 °F 81% 30.15 in - East 4.6 mph - N/A   Clear
10:00 AM 46.4 °F - 39.2 °F 76% 30.15 in - Variable 2.3 mph - N/A   Clear
10:30 AM 48.2 °F - 41.0 °F 76% 30.18 in - Variable 2.3 mph - N/A   Clear
11:00 AM 50.0 °F - 42.8 °F 76% 30.18 in - East 3.5 mph - N/A   Clear
11:30 AM 51.8 °F - 42.8 °F 71% 30.18 in - ESE 1.2 mph - N/A   Clear
12:00 PM 53.6 °F - 42.8 °F 67% 30.18 in - SE 1.2 mph - N/A   Clear
12:30 PM 55.4 °F - 44.6 °F 67% 30.18 in - Variable 1.2 mph - N/A   Clear
1:00 PM 57.2 °F - 46.4 °F 67% 30.15 in 6.2 mi NE 1.2 mph - N/A   Partly Cloudy
1:30 PM 57.2 °F - 46.4 °F 67% 30.15 in 6.2 mi East 1.2 mph - N/A   Partly Cloudy
2:00 PM 59.0 °F - 42.8 °F 55% 30.15 in 6.2 mi NW 2.3 mph - N/A   Partly Cloudy
2:30 PM 59.0 °F - 42.8 °F 55% 30.15 in 6.2 mi Calm Calm - N/A   Partly Cloudy
3:00 PM 60.8 °F - 42.8 °F 52% 30.15 in 6.2 mi NW 2.3 mph - N/A   Partly Cloudy
3:30 PM 60.8 °F - 39.2 °F 45% 30.15 in 6.2 mi West 1.2 mph - N/A   Partly Cloudy
4:00 PM 62.6 °F - 39.2 °F 42% 30.12 in 6.2 mi East 1.2 mph - N/A   Partly Cloudy
4:30 PM 62.6 °F - 35.6 °F 37% 30.12 in 6.2 mi NW 4.6 mph - N/A   Partly Cloudy
5:00 PM 62.6 °F - 37.4 °F 39% 30.12 in 6.2 mi Variable 2.3 mph - N/A   Partly Cloudy
5:30 PM 64.4 °F - 41.0 °F 42% 30.12 in 6.2 mi ENE 2.3 mph - N/A   Partly Cloudy
6:30 PM 64.4 °F - 41.0 °F 42% 30.12 in 6.2 mi Calm Calm - N/A   Partly Cloudy
7:00 PM 64.4 °F - 37.4 °F 37% 30.12 in 6.2 mi NNW 2.3 mph - N/A   Partly Cloudy
7:30 PM 64.4 °F - 41.0 °F 42% 30.12 in 6.2 mi North 3.5 mph - N/A   Partly Cloudy
8:00 PM 64.4 °F - 37.4 °F 37% 30.12 in 6.2 mi NNW 3.5 mph - N/A   Partly Cloudy
8:30 PM 62.6 °F - 42.8 °F 48% 30.12 in 6.2 mi NNW 3.5 mph - N/A   Partly Cloudy
9:00 PM 59.0 °F - 41.0 °F 51% 30.12 in 6.2 mi NNE 1.2 mph - N/A   Partly Cloudy
9:30 PM 57.2 °F - 37.4 °F 48% 30.15 in 6.2 mi NNE 4.6 mph - N/A   Partly Cloudy